Location: Barrialito
(10.1025°N, 66.8154°W)
Time: 16:21:29
(UTC+00:00)

USA 215 - Pass Details

Date: 10 September 2024
Orbit: 1099 x 1108 km, 123.0° (Epoch: 25 September)

Event Time Altitude Azimuth Distance (km) Brightness Sun altitude
Rises 22:53:49 0° 55° (NE) 3,911 5.7 -6.5°
Reaches altitude 10° 22:56:37 10° 65° (ENE) 2,955 5.0 -7.2°
Maximum altitude 23:02:14 31° 125° (SE) 1,820 4.0 -8.6°
Drops below altitude 10° 23:07:52 10° 185° (S) 2,960 5.5 -10.0°
Sets 23:10:39 0° 195° (SSW) 3,919 6.3 -10.7°
